Date String (YYYY-MM-DD hh:mm:ss) UTC,Instrument flags,Ambient pressure (hPa),Sample flow (lpm),Bypass flow (lpm),Sample temperature (°C),Ambient temperature (°C),ASC tube jacket temperature (°C),LED temperature (°C),Box temperature (°C),Sample RH (%),Span deviation,Mass concentration (μg/m³),Mass concentration (μg/m³),Mass concentration (μg/m³)
DateTimeUTC,F1_M11,P_M11,Q1_M11,Q2_M11,T1_M11,T2_M11,T3_M11,T4_M11,T5_M11,U1_M11,ZSPAN_M11,X0_M11,X2_M11,X1_M11
2023-01-15 10:00:00,,0813.1,4.99,0.00,22.7,21.4,00.0,31.5,24.3,14.3,0004.3,0008.48,0006.01,0005.83
2023-01-15 10:01:00,,0813.2,5.00,0.00,22.7,21.4,00.0,31.5,24.3,14.5,0005.5,0008.43,0005.92,0005.74
2023-01-15 10:02:00,,0813.1,4.99,0.00,22.7,21.3,00.0,31.5,24.3,14.4,0005.6,0008.36,0005.83,0005.63
2023-01-15 10:03:00,,0813.0,5.01,0.00,22.7,21.3,00.0,31.5,24.3,14.3,0002.8,0008.22,0005.73,0005.54
2023-01-15 10:04:00,,0813.0,4.99,0.00,22.6,21.3,00.0,31.5,24.3,14.1,0000.0,0008.06,0005.61,0005.45
2023-01-15 10:05:00,,0813.3,4.99,0.00,22.6,21.2,00.0,31.5,24.3,14.1,0000.0,0007.96,0005.54,0005.39
2023-01-15 10:06:00,,0813.1,5.00,0.00,22.6,21.2,00.0,31.5,24.3,14.0,0000.0,0007.87,0005.48,0005.34
2023-01-15 10:07:00,,0813.2,5.00,0.00,22.6,21.3,00.0,31.5,24.3,14.0,0000.0,0007.86,0005.44,0005.29
2023-01-15 10:08:00,,0813.1,5.01,0.00,22.6,21.2,00.0,31.5,24.3,14.0,0000.0,0008.04,0005.41,0005.25
2023-01-15 10:09:00,,0813.1,5.00,0.00,22.6,21.2,00.0,31.5,24.2,14.0,0000.0,0008.18,0005.34,0005.19
2023-01-15 10:10:00,,0812.9,5.01,0.00,22.6,21.3,00.0,31.5,24.3,14.0,0000.0,0008.08,0005.26,0005.12
2023-01-15 10:11:00,,0813.1,4.98,0.00,22.6,21.3,00.0,31.5,24.4,13.9,0000.0,0008.04,0005.23,0005.09
2023-01-15 10:12:00,,0812.8,5.01,0.00,22.6,21.3,00.0,31.5,24.3,13.9,0000.0,0007.97,0005.23,0005.09
2023-01-15 10:13:00,,0812.9,5.01,0.00,22.6,21.3,00.0,31.5,24.3,13.9,0000.0,0007.92,0005.22,0005.10
2023-01-15 10:14:00,,0812.9,5.00,0.00,22.6,21.3,00.0,31.5,24.3,13.9,0000.0,0007.90,0005.23,0005.10
2023-01-15 10:15:00,,0812.8,5.00,0.00,22.6,21.3,00.0,31.5,24.3,13.8,0000.0,0007.99,0005.25,0005.09
2023-01-15 10:16:00,,0812.8,5.01,0.00,22.6,21.3,00.0,31.5,24.3,13.8,0000.0,0008.08,0005.25,0005.07
2023-01-15 10:17:00,,0812.7,4.99,0.00,22.6,21.2,00.0,31.5,24.2,13.8,0000.0,0008.19,0005.26,0005.03
2023-01-15 10:18:00,,0812.7,5.00,0.00,22.6,21.2,00.0,31.5,24.2,13.8,0000.0,0008.13,0005.19,0004.96
2023-01-15 10:19:00,,0812.6,5.00,0.00,22.6,21.2,00.0,31.5,24.2,13.8,0000.0,0007.88,0005.11,0004.88
2023-01-15 10:20:00,,0812.6,4.99,0.00,22.6,21.2,00.0,31.5,24.3,13.8,0000.0,0007.58,0005.04,0004.81
2023-01-15 10:21:00,,0812.5,4.99,0.00,22.6,21.2,00.0,31.5,24.3,13.8,0000.0,0007.51,0004.96,0004.74
2023-01-15 10:22:00,,0812.5,5.00,0.00,22.6,21.2,00.0,31.5,24.3,13.7,0000.0,0007.45,0004.90,0004.67
2023-01-15 10:23:00,,0812.5,5.02,0.00,22.6,21.2,00.0,31.5,24.2,13.7,0000.0,0007.42,0004.86,0004.62
2023-01-15 10:24:00,,0812.4,5.01,0.00,22.6,21.2,00.0,31.5,24.2,13.7,0000.0,0007.37,0004.80,0004.56
2023-01-15 10:25:00,,0812.4,5.01,0.00,22.5,21.1,00.0,31.5,24.1,13.9,0000.0,0007.24,0004.72,0004.49
2023-01-15 10:26:00,,0812.4,5.01,0.00,22.5,21.1,00.0,31.5,24.1,14.1,0000.0,0007.02,0004.62,0004.40
2023-01-15 10:27:00,,0812.4,5.00,0.00,22.5,21.1,00.0,31.5,24.1,13.9,0000.0,0007.41,0004.52,0004.30
2023-01-15 10:28:00,,0812.4,5.01,0.00,22.5,21.1,00.0,31.5,24.1,13.7,0000.0,0007.04,0004.37,0004.19
2023-01-15 10:29:00,,0812.4,5.01,0.00,22.5,21.0,00.0,31.5,24.1,13.7,0000.0,0006.78,0004.28,0004.13
2023-01-15 10:30:00,,0812.3,4.99,0.00,22.5,21.0,00.0,31.5,24.1,13.8,0000.0,0006.56,0004.20,0004.06
2023-01-15 10:31:00,,0812.4,5.00,0.00,22.5,21.0,00.0,31.5,24.1,14.1,0000.0,0006.38,0004.13,0003.99
2023-01-15 10:32:00,,0812.4,5.01,0.00,22.5,21.0,00.0,31.4,24.1,14.1,0000.0,0006.26,0004.10,0003.95
2023-01-15 10:33:00,,0812.4,5.00,0.00,22.5,21.0,00.0,31.4,24.1,14.0,0000.0,0006.15,0004.06,0003.92
2023-01-15 10:34:00,,0812.4,5.00,0.00,22.5,21.0,00.0,31.4,24.2,14.0,0000.0,0006.09,0004.02,0003.87
2023-01-15 10:35:00,,0812.4,5.00,0.00,22.5,21.0,00.0,31.4,24.1,13.9,0000.0,0006.11,0003.98,0003.83
2023-01-15 10:36:00,,0812.4,5.01,0.00,22.5,21.0,00.0,31.4,24.1,13.8,0000.0,0006.09,0003.95,0003.78
2023-01-15 10:37:00,,0812.4,5.01,0.00,22.4,21.0,00.0,31.4,24.1,13.8,0000.0,0006.00,0003.93,0003.76
2023-01-15 10:38:00,,0812.5,5.01,0.00,22.4,21.0,00.0,31.4,24.1,13.8,0000.0,0005.13,0003.88,0003.74
2023-01-15 10:39:00,,0812.5,4.99,0.00,22.4,21.0,00.0,31.4,24.1,13.8,0000.0,0004.98,0003.85,0003.70
2023-01-15 10:40:00,,0812.5,5.00,0.00,22.4,21.0,00.0,31.4,24.1,13.8,0000.0,0004.96,0003.83,0003.68
2023-01-15 10:41:00,,0812.5,5.01,0.00,22.4,21.0,00.0,31.4,24.1,13.8,0000.0,0004.95,0003.81,0003.66
2023-01-15 10:42:00,,0812.5,4.99,0.00,22.4,21.0,00.0,31.4,24.0,13.8,0000.0,0004.91,0003.79,0003.64
2023-01-15 10:43:00,,0812.5,5.00,0.00,22.4,21.0,00.0,31.4,24.1,13.8,0000.0,0004.89,0003.76,0003.62
2023-01-15 10:44:00,,0812.5,5.00,0.00,22.4,21.0,00.0,31.4,24.0,13.8,0000.0,0005.62,0003.73,0003.58
2023-01-15 10:45:00,,0812.5,5.00,0.00,22.4,21.0,00.0,31.3,24.0,13.8,0000.0,0006.03,0003.70,0003.55
2023-01-15 10:46:00,,0812.5,5.00,0.00,22.4,21.0,00.0,31.3,24.0,13.8,0000.0,0005.94,0003.66,0003.53
2023-01-15 10:47:00,,0812.4,5.01,0.00,22.4,21.0,00.0,31.3,24.0,13.7,0000.0,0005.96,0003.60,0003.47
2023-01-15 10:48:00,,0812.4,5.00,0.00,22.4,21.0,00.0,31.3,24.1,13.7,0000.0,0007.20,0003.54,0003.42
2023-01-15 10:49:00,,0812.4,5.01,0.00,22.4,21.0,00.0,31.3,24.0,13.8,0000.0,0007.15,0003.51,0003.40
2023-01-15 10:50:00,,0812.4,5.01,0.00,22.4,21.0,00.0,31.3,24.0,13.8,0000.0,0007.18,0003.51,0003.40
2023-01-15 10:51:00,,0812.4,5.01,0.00,22.4,21.0,00.0,31.3,24.0,13.6,0000.0,0007.08,0003.48,0003.37
2023-01-15 10:52:00,,0812.4,5.00,0.00,22.4,21.0,00.0,31.3,24.0,13.6,0000.0,0006.92,0003.42,0003.34
2023-01-15 10:53:00,,0812.3,4.99,0.00,22.4,21.0,00.0,31.3,24.0,13.7,0000.0,0006.90,0003.41,0003.32
2023-01-15 10:54:00,,0812.3,4.99,0.00,22.4,20.9,00.0,31.3,24.0,13.8,0000.0,0007.11,0003.41,0003.31
2023-01-15 10:55:00,,0812.3,5.01,0.00,22.3,20.9,00.0,31.3,24.0,13.9,0000.0,0006.79,0003.40,0003.30
2023-01-15 10:56:00,,0812.3,5.00,0.00,22.3,20.9,00.0,31.3,24.0,13.8,0000.0,0005.93,0003.38,0003.29
2023-01-15 10:57:00,,0812.3,5.01,0.00,22.3,20.9,00.0,31.3,23.9,13.7,0000.0,0005.80,0003.35,0003.26
2023-01-15 10:58:00,,0812.3,4.99,0.00,22.3,20.9,00.0,31.3,23.9,13.7,0000.0,0005.92,0003.35,0003.26
2023-01-15 10:59:00,,0812.3,4.99,0.00,22.3,20.9,00.0,31.3,24.0,13.6,0000.0,0004.36,0003.34,0003.23
